Location: ?
(35.4214°N, 139.3011°E)
Time: 17:36:42
(UTC+00:00)

ISS - Visible Passes

Search period start: 28 September 2020 00:00
Search period end: 08 October 2020 00:00
Orbit: 419 x 421 km, 51.6° (Epoch: 29 September)

Date Brightness Start Highest point End Pass type
(mag) Time Alt. Az. Time Alt. Az. Time Alt. Az.
02 Oct -0.7 10:38:03 10° NNW 10:38:24 12° NNW 10:38:24 12° NNW visible
03 Oct -1.7 09:51:06 10° NNW 09:53:02 18° NNE 09:53:02 18° NNE visible
04 Oct -1.5 09:04:22 10° N 09:06:03 13° NNE 09:07:44 10° NE visible
04 Oct -0.8 10:39:56 10° NW 10:40:43 16° NW 10:40:43 16° NW visible
05 Oct -3.1 09:52:42 10° NW 09:55:30 44° N 09:55:30 44° N visible
06 Oct -2.6 09:05:35 10° NNW 09:08:34 28° NE 09:10:24 17° E visible
06 Oct -0.7 10:42:30 10° WNW 10:43:24 15° W 10:43:24 15° W visible
07 Oct -3.0 09:54:49 10° WNW 09:58:04 45° SW 09:58:25 43° SSW visible
